Powrót do katalogu

FORESAIL-1 PRIME

AktywnyKrótkofalarstwoSSO
NORAD 66778·PAYLOAD·🇫🇮 Finland

Wystrzelony Nov 28, 2025 z Vandenberg Space Force Base

Loading…

Następne Przeloty (najbliższe 24 godziny)

TLE

ŚwieżeSource: Space-Track

Epoka: Sep 14, 2026, 10:51 UTC

1 66778U 25276DS  26257.45215963  .00003319  00000-0  16027-3 0  9998
2 66778  97.4123 329.0921 0003298 131.5374 228.6144 15.19339774 43951

Śledź FORESAIL-1 PRIME w czasie rzeczywistym z AllMySat

Download on the App Store